sat.trackr.live / text

‹ back to catalog

STARLINK-31296

NORAD 58879 · 2024-020D

PAYLOAD ACTIVE UNKNOWN

§ Identity

Operator
Country
US
Launch date
2024-01-29
Launch site
AFWTR
Launch vehicle
Mass (kg)
RCS (m²)

Purposes: comms

External: N2YO · Heavens-Above · Gunter

§ Orbital elements

Epoch: 2026-09-20T03:03:06.626592Z

Period
93.85 min
Inclination
53.1584°
Eccentricity
0.0001045
Mean motion
15.34406851 rev/d
Perigee alt
462.0 km
Apogee alt
463.4 km
Semi-major
6,840.8 km
B*
3.2790e-5
RAAN
111.3435°
Arg perigee
98.4518°
Mean anomaly
261.6603°
Rev number
14,823

§ Raw data

STARLINK-312961 58879U 24020D   26263.12716003  .00000732  00000+0  32790-4 0  99902 58879  53.1584 111.3435 0001045  98.4518 261.6603 15.34406851148237

JSON: /api/v1/satellites/58879 · /tle

For live sub-satellite position, see the globe view (requires WebGL).

§ Visibility from observer

Set your observer location to see the next 7 days of passes ≥ 10°. The values pass through the URL so the page stays shareable.

No JS? Fill the form by hand. The geolocation button needs JavaScript.